Regional Weather Roundup
Issued by NWS

Home | Current Version | Previous Version | Graphics & Text | Print | Product List | Glossary On
Versions: 1 2 3 4 5 6 7 8 9 10 11 12 13 14 15 16 17 18 19 20 21 22 23 24 25 26 27 28 29 30 31 32 33 34 35 36 37 38 39 40 41 42 43 44 45 46 47 48 49 50
000
ASUS43 KBIS 200120
RWRND

NORTH DAKOTA REGIONAL WEATHER ROUNDUP
NATIONAL WEATHER SERVICE BISMARCK ND
800 PM CDT FRI SEP 19 2014

NOTE: "FAIR" INDICATES FEW OR NO CLOUDS BELOW 12,000 FEET WITH NO
SIGNIFICANT WEATHER AND/OR OBSTRUCTIONS TO VISIBILITY.


NDZ001>003-009>011-017-200200-
NORTHWEST NORTH DAKOTA

CITY           SKY/WX    TMP DP  RH WIND       PRES   REMARKS
WILLISTON      CLEAR     68  50  52 NW8       29.77R
MINOT          CLEAR     65  55  70 W14       29.71R
MINOT AFB      CLEAR     79  52  38 NW24G31   29.57R
$$

NDZ018>021-031>035-040>046-200200-
SOUTHWEST NORTH DAKOTA

CITY           SKY/WX    TMP DP  RH WIND       PRES   REMARKS
BISMARCK       CLOUDY    74  53  48 NW10      29.72R
DICKINSON      CLOUDY    69  51  52 NW6       29.79R
GARRISON         N/A     66  56  70 NW7       29.73R
HETTINGER ARPT CLOUDY    68  48  48 W9        29.83R
$$

NDZ004>008-012>016-024-026-027-054-200200-
NORTHEAST NORTH DAKOTA

CITY           SKY/WX    TMP DP  RH WIND       PRES   REMARKS
GRAND FORKS    CLEAR     72  55  55 W9        29.52R
GRND FRKS AFB  CLEAR     70  55  60 N14G23    29.56R
DEVILS LAKE    MOCLDY    70  55  60 NW15      29.62R
$$

NDZ022-023-025-028>030-036>039-047>053-200200-
SOUTHEAST NORTH DAKOTA

CITY           SKY/WX    TMP DP  RH WIND       PRES   REMARKS
FARGO          MOCLDY    73  61  65 SW9       29.57R
JAMESTOWN      MOCLDY    73  52  47 W12       29.64R
$$




USA.gov is the U.S. government's official web portal to all federal, state and local government web resources and services.